User: anonymous   Login
Location: Fort Wayne
(41.1310°N, 85.1290°W)
Time: 05:00:32
(UTC-04:00)
Language:

MetOp-A - Orbit

View from above orbital plane
View from above orbital plane
View from above satellite
View from above satellite

Ground track
Ground track

The orbit data is extracted from the following two-line orbital elements,

1 29499U 06044A   14304.47890231  .00000208  00000-0  11506-3 0  5029
2 29499 098.7094 002.3373 0002088 112.5284 310.1336 14.21472208416796
Epoch (UTC): 31 October 2014 11:29:37
Eccentricity: 0.0002088
inclination: 98.7094°
perigee height: 819 km
apogee height: 822 km
right ascension of ascending node: 2.3373°
argument of perigee: 112.5284°
revolutions per day: 14.21472208
mean anomaly at epoch: 310.1336°
orbit number at epoch: 41679

The dashed part of the orbit path shows where the satellite is in the earth's shadow,  

DLR